Glonass Operational
NORAD ID: 26564
Int'l Code: 2000-063A
Perigee: 19,125.3 km
Apogee: 19,148.7 km
Inclination: 64.6 °
Period: 675.7 minutes
Semi major axis: 25507 km
Launch date: October 13, 2000
Source: Commonwealth of Independent States (former USSR) (CIS)
SV: 787
Comments: Russia's version of the GPS system, functions the same; there has been cooperation between the two; much scaled-back constellation
Two Line Element Set (TLE):
1 26564U 00063A 13139.45580221 .00000088 00000-0 00000+0 0 756
2 26564 064.6392 115.7555 0004577 033.0677 154.7519 02.13102541 98034
Source: AFSPC
NASA's NSSDC Master Catalog entry for COSMOS 2375 (GLONASS)